GFSGBSN_sfc_thetae_162.txt.gz
Theta_e
321 321 321 321 320 320 320 320 320 319 319 319 319 319 319 320 321 321 321 321 320 319 320 321 321 322 325 321 319 336 344 342 325 320 317 316 317 316 323 329 330 327 329 331 331 328 328
321 321 321 321 321 321 320 321 321 321 320 320 320 320 320 320 320 321 320 319 318 318 320 321 322 323 326 314 333 335 325 326 321 320 317 319 317 330 330 329 327 330 330 330 330 328 327
322 321 321 321 321 321 320 321 321 320 320 320 320 320 320 320 320 320 319 317 317 317 319 321 323 326 323 319 332 331 328 323 321 320 316 318 319 324 333 329 334 331 326 328 329 329 323
323 323 322 322 321 321 320 320 320 320 320 320 320 320 320 320 319 319 317 316 318 320 319 322 324 328 319 331 333 323 320 319 320 320 318 318 319 332 333 335 330 325 324 319 327 330 328
324 323 323 323 322 322 321 320 320 320 320 320 320 319 319 319 318 317 315 316 322 322 322 324 327 324 316 327 325 327 323 314 316 316 318 316 325 332 332 325 320 320 312 314 321 330 328
324 324 323 323 323 322 321 321 320 320 320 319 319 319 318 318 317 315 315 317 325 326 326 328 327 319 319 314 320 325 326 320 316 315 312 313 323 323 324 319 307 310 311 313 317 324 327
325 324 324 324 323 322 322 321 321 320 320 319 319 318 317 317 315 314 316 326 322 320 322 318 317 316 317 320 321 320 324 319 316 314 309 312 312 312 315 317 315 314 311 311 320 324 324
324 324 323 323 323 322 322 321 321 320 320 319 318 317 317 315 314 313 317 321 316 315 312 318 317 318 320 319 313 317 322 311 311 308 310 309 307 313 313 311 313 313 310 315 322 325 323
324 323 322 322 322 322 321 321 320 320 320 319 318 317 316 314 313 315 317 320 320 316 314 316 319 318 318 319 312 313 317 313 309 308 308 307 309 311 311 311 309 312 310 314 315 323 324
323 322 322 322 322 322 321 321 320 320 319 319 318 317 315 311 314 319 316 320 318 318 310 311 314 318 320 319 310 317 319 313 308 305 307 307 311 307 307 309 311 308 313 315 317 317 308
323 322 322 322 322 321 321 320 320 319 319 318 318 316 313 310 318 317 316 320 319 319 300 312 313 323 320 314 312 312 319 314 307 307 307 306 307 306 305 308 309 309 316 318 317 314 311
323 322 322 322 322 321 320 319 319 319 319 318 317 315 312 316 320 319 320 319 319 307 298 309 313 312 311 312 311 313 313 315 314 310 311 310 312 310 309 311 310 317 318 318 317 312 304
323 322 322 321 321 321 319 319 319 319 318 317 314 312 312 319 318 320 320 318 305 301 311 308 308 311 310 309 309 310 309 308 307 304 305 308 308 311 317 314 317 318 312 304 303 303 302
322 321 320 320 320 320 319 319 319 318 317 315 311 309 314 318 321 321 318 311 299 304 308 312 310 310 307 310 310 309 308 306 310 309 307 304 302 309 316 312 310 311 311 304 295 299 303
319 319 319 319 319 319 319 319 318 317 316 313 309 323 319 322 320 320 311 302 303 306 310 310 309 307 307 309 309 308 307 306 309 310 305 304 304 311 311 312 313 310 307 312 304 305 301
319 319 319 319 319 319 319 319 318 317 315 312 317 318 318 318 319 315 306 299 305 309 311 310 306 309 306 307 306 307 306 310 308 311 314 310 304 310 310 312 312 311 313 304 305 297 297
318 318 318 318 317 317 318 318 318 317 313 311 317 313 315 319 317 310 301 303 306 310 312 309 308 306 308 308 308 307 308 310 312 311 313 312 310 308 310 308 308 308 307 307 308 306 300
318 317 317 316 316 317 318 318 317 314 310 313 315 310 316 318 306 308 303 305 302 308 312 310 308 307 307 307 308 308 308 310 314 313 308 313 311 306 307 311 312 312 310 310 304 304 305
317 317 315 315 315 315 316 316 315 313 311 318 313 314 319 316 302 302 305 304 306 306 308 307 306 307 309 308 305 309 310 313 314 313 312 314 308 303 304 308 311 309 311 312 311 310 305
316 316 316 315 315 315 315 315 314 313 311 316 313 308 313 314 311 306 304 303 302 307 306 307 306 309 308 307 310 309 310 311 313 314 317 317 311 308 303 306 309 306 308 311 310 305 306
315 315 315 316 316 316 315 315 314 314 311 316 315 310 311 311 309 308 309 307 304 304 309 312 308 307 306 305 307 307 311 311 313 312 313 314 308 310 309 307 307 306 305 308 308 309 306
314 314 315 315 316 316 316 315 315 315 311 317 311 310 316 310 310 308 304 306 305 307 308 307 308 308 308 306 308 307 311 313 311 313 312 314 309 310 306 306 306 304 306 307 307 308 308
313 314 315 316 317 316 316 316 315 315 310 315 317 317 312 307 309 308 307 307 307 308 309 310 310 310 309 310 313 315 314 315 315 313 312 312 310 308 303 306 305 302 306 306 307 309 309
313 314 314 316 317 317 317 317 317 316 312 309 310 310 308 305 308 308 306 307 308 308 306 308 309 309 315 319 319 317 314 313 314 314 315 312 312 309 303 306 296 307 313 310 309 311 313
314 314 315 316 317 318 318 318 319 317 314 311 310 307 303 301 309 308 308 308 309 310 307 306 308 313 316 316 311 307 307 308 310 312 312 315 312 306 302 301 305 306 309 311 310 310 316
315 315 316 317 317 318 319 319 320 319 314 312 311 311 307 302 303 309 309 309 307 306 306 306 311 316 315 310 310 303 301 305 304 306 312 313 315 308 305 300 298 307 311 317 316 305 316
315 316 317 317 318 318 318 319 320 320 314 313 311 313 308 301 307 306 307 306 310 307 306 306 308 309 316 307 305 304 303 309 303 303 305 307 308 305 305 302 305 311 312 319 303 308 318
315 317 317 317 316 317 318 319 319 320 315 314 313 313 308 303 305 309 312 310 307 308 304 307 304 311 311 308 306 307 305 308 307 309 308 307 305 304 306 303 300 315 314 309 314 319 318
315 315 315 315 316 316 317 318 319 318 316 314 309 314 313 305 305 312 314 316 316 314 309 311 307 307 311 311 312 311 307 311 309 304 312 306 310 307 309 308 318 319 318 321 320 319 320

GFSGBSN_sfc_thetae_165.txt.gz
Theta_e
322 322 322 322 322 321 322 322 322 322 322 322 322 321 321 321 321 322 322 322 320 320 320 322 323 323 326 324 322 330 344 337 326 324 321 321 321 321 323 327 328 328 331 332 331 331 331
323 322 323 323 322 322 322 322 322 322 322 321 321 321 321 321 321 321 321 320 318 318 319 322 323 323 328 319 330 333 325 323 325 322 322 322 321 331 329 327 327 331 331 330 330 327 328
324 324 324 324 323 323 322 322 322 322 322 321 321 321 321 321 321 320 320 318 318 319 319 322 324 328 326 322 330 329 327 326 324 323 321 322 322 325 332 328 333 331 325 328 329 327 326
325 324 324 324 324 323 323 323 322 322 322 321 321 321 321 320 320 319 317 317 319 322 321 323 325 330 322 328 332 324 325 323 325 325 322 322 322 325 332 333 330 324 325 319 328 331 327
325 325 325 325 324 323 323 322 322 322 321 321 321 320 320 320 319 318 316 317 323 322 322 324 329 328 320 330 323 325 322 319 321 323 322 320 322 328 329 325 318 323 312 317 322 330 328
326 325 325 325 324 323 323 322 322 322 322 321 320 320 319 319 317 316 315 317 325 324 327 331 330 322 322 319 322 323 325 320 318 318 317 316 319 321 323 315 305 308 311 315 317 326 327
325 325 325 324 324 323 323 322 322 322 322 321 320 319 319 318 316 314 317 329 326 324 328 321 320 319 318 320 322 321 323 319 318 317 312 317 313 313 317 317 318 315 313 314 320 325 324
325 324 324 323 323 323 322 322 321 321 321 320 320 319 318 316 315 314 318 323 320 320 314 322 320 319 321 321 314 319 323 315 314 310 314 312 308 316 318 316 314 314 312 315 321 324 325
325 324 323 323 323 323 322 321 321 321 320 320 319 319 317 316 314 316 323 323 325 324 315 318 320 319 318 319 314 316 319 315 311 309 310 308 311 314 312 312 312 313 312 314 315 321 323
325 323 323 322 323 322 322 321 320 320 320 320 319 319 317 313 315 323 319 326 325 325 311 313 315 318 320 319 312 320 320 315 311 308 310 309 314 310 309 310 314 309 316 314 316 313 302
324 323 322 322 322 321 322 320 320 320 319 319 319 318 315 312 323 319 321 324 324 323 301 314 315 324 320 316 315 314 320 316 309 308 309 307 308 308 307 310 314 311 316 316 316 314 312
323 323 322 321 321 321 320 320 319 319 319 319 318 316 314 321 324 324 324 323 322 309 300 311 316 313 313 315 312 314 315 317 317 311 310 311 314 311 312 313 312 315 314 315 316 313 305
321 321 320 320 320 320 319 319 319 319 318 317 316 313 314 322 322 326 323 318 307 302 315 310 311 313 312 310 311 311 309 309 308 305 305 310 310 313 314 312 314 315 312 304 302 301 303
320 319 319 319 319 319 319 319 319 318 317 316 312 311 318 323 326 325 320 311 301 307 309 314 314 313 309 312 311 310 309 307 311 311 308 305 302 311 315 315 312 313 311 304 298 300 304
319 319 319 318 318 318 318 318 317 317 317 315 311 327 326 327 325 324 313 302 304 308 311 311 312 309 309 311 311 311 309 308 311 312 308 306 307 314 315 316 314 311 307 313 307 308 303
319 318 318 318 317 317 317 317 317 316 316 314 320 323 324 324 323 320 309 300 307 312 312 313 308 310 307 309 309 310 309 311 310 313 315 311 306 313 313 314 314 312 315 307 306 300 300
318 318 318 317 316 316 316 317 316 316 314 313 320 318 320 323 322 314 304 305 307 312 312 310 310 310 310 310 310 309 309 311 312 312 314 312 311 309 312 310 309 310 308 309 309 308 301
317 317 317 316 315 314 315 316 315 313 312 315 320 313 320 321 308 311 307 309 304 310 312 310 313 312 311 311 311 310 309 312 315 315 310 313 311 308 309 314 315 314 312 312 305 304 308
316 316 317 316 316 315 315 315 314 312 312 321 318 318 324 317 305 308 312 309 310 309 309 309 308 313 313 310 308 311 312 316 316 315 312 313 309 305 307 311 314 310 312 312 312 311 308
315 315 316 316 316 316 315 314 313 312 313 319 318 313 317 316 314 310 309 308 306 310 308 310 310 312 310 308 313 310 311 315 316 316 325 319 311 308 305 307 311 308 309 311 311 306 307
314 315 314 316 316 317 316 314 314 313 314 318 319 313 316 312 314 312 311 310 308 306 309 310 308 307 308 307 308 309 313 314 315 314 316 315 309 310 312 312 310 309 308 309 308 310 307
314 314 315 316 316 317 317 315 315 314 314 320 314 314 316 314 315 313 309 310 308 310 309 308 307 309 309 307 308 308 311 313 313 316 315 317 310 312 310 311 309 307 308 309 309 310 311
313 314 314 315 316 317 317 316 316 315 313 319 321 319 315 310 312 310 310 310 310 312 313 314 313 312 309 310 314 316 316 317 317 315 314 314 311 309 306 310 309 304 308 309 309 311 311
314 315 315 316 317 318 318 318 318 317 313 315 317 317 311 307 309 308 309 311 310 312 310 313 314 312 316 320 319 316 314 316 317 317 317 313 313 311 306 308 299 309 314 312 310 311 313
314 315 316 317 318 318 318 319 319 319 315 316 315 314 311 306 310 309 308 309 312 313 311 312 314 316 318 316 311 307 306 308 311 315 315 316 314 308 304 304 308 309 312 311 310 310 316
314 316 316 317 318 318 319 319 319 319 316 318 315 313 307 303 308 313 310 309 307 308 310 312 317 318 316 311 308 303 299 304 305 308 315 315 316 310 307 302 300 310 314 317 316 307 318
315 316 318 318 318 318 318 319 320 320 315 317 315 314 309 302 308 313 309 308 311 310 309 310 312 313 315 308 304 302 302 309 303 304 307 308 310 307 306 303 308 314 316 318 305 311 318
315 316 316 316 316 317 318 318 319 320 317 316 315 317 310 303 307 312 314 311 311 312 306 309 310 310 308 304 305 305 304 307 306 311 310 307 306 306 307 304 302 318 316 310 317 321 319
315 316 315 315 315 316 317 317 319 319 317 315 310 316 315 306 308 316 317 318 317 315 314 314 310 311 314 310 309 310 306 308 309 304 315 308 311 308 310 309 321 321 319 321 321 320 319

GFSGBSN_sfc_thetae_168.txt.gz
Theta_e
324 325 325 325 324 324 324 324 324 323 323 323 323 322 322 322 322 322 322 322 321 321 321 322 323 324 324 319 319 323 345 338 324 322 322 322 320 322 319 327 328 325 329 330 332 331 329
325 325 325 325 325 325 324 324 324 324 324 323 323 322 322 322 322 322 321 320 320 320 321 321 324 323 325 318 331 324 320 323 324 322 322 324 321 326 328 328 327 327 330 328 330 330 328
326 326 326 326 325 324 324 324 324 324 323 323 322 322 322 321 322 321 320 319 319 320 321 322 324 326 325 325 331 331 324 321 323 324 321 325 324 321 328 325 331 331 325 327 325 326 325
326 326 325 325 325 324 324 324 324 323 323 322 322 322 322 321 321 320 318 317 319 323 323 323 325 328 322 330 332 327 326 323 326 326 324 325 324 321 328 327 326 324 325 317 325 327 328
326 325 325 325 325 324 323 323 323 323 321 320 321 320 321 321 320 318 317 317 322 324 323 324 324 326 320 330 321 326 324 319 322 324 325 324 321 318 325 321 314 317 311 317 321 329 326
326 326 325 325 324 324 323 322 321 321 321 320 320 319 320 320 319 317 315 317 325 324 323 327 328 322 326 320 323 322 324 321 317 319 319 319 318 314 318 319 305 307 310 315 318 325 323
326 325 325 325 324 324 323 322 321 320 320 321 320 319 319 319 318 316 316 326 325 322 328 320 321 321 320 321 324 321 322 320 317 316 311 316 310 309 313 319 317 313 311 313 322 327 323
326 325 323 322 323 323 323 323 321 320 320 320 320 319 319 318 317 315 316 319 322 321 314 323 323 321 322 320 314 318 322 313 311 308 313 312 307 314 321 319 317 316 311 316 320 323 320
326 325 323 322 321 321 322 322 321 320 320 320 320 319 318 316 316 317 317 322 328 325 314 317 321 319 318 319 314 315 318 316 311 309 310 308 311 314 314 313 311 311 311 314 315 318 322
325 323 323 322 320 320 321 321 320 320 319 319 319 319 317 314 318 325 319 324 327 325 309 313 315 318 320 318 312 321 320 315 311 308 310 310 313 311 310 309 311 308 316 316 315 316 310
323 322 321 320 320 320 320 320 319 319 319 319 319 318 315 314 323 320 323 325 325 321 298 316 316 325 321 314 315 315 320 316 309 308 310 307 308 308 308 307 313 310 316 314 315 314 314
321 321 320 320 320 320 319 319 319 318 318 318 318 317 314 323 324 327 326 323 321 307 299 312 316 314 313 314 313 315 314 318 316 310 309 309 315 310 310 312 313 315 312 313 313 312 304
320 320 320 320 319 319 318 318 318 317 317 316 315 313 315 324 321 328 325 316 304 300 313 310 311 314 312 310 312 311 309 308 306 303 303 307 310 312 312 310 312 311 308 304 302 303 302
320 320 319 319 318 318 317 317 317 316 316 315 313 312 320 326 329 327 322 308 298 306 307 315 314 312 309 312 311 310 308 305 310 309 306 303 302 309 313 311 310 310 309 304 295 299 301
319 319 319 318 318 317 316 316 316 315 315 314 312 325 326 329 328 324 314 300 301 307 312 310 312 309 308 311 310 309 308 307 310 311 305 305 305 313 314 315 316 310 308 313 306 308 304
318 318 318 318 316 316 316 315 315 315 314 313 317 319 322 329 326 319 309 300 305 310 312 311 306 310 306 309 308 309 309 311 310 313 314 311 305 312 313 316 315 311 314 305 307 299 299
317 317 317 317 317 316 315 315 315 314 313 313 320 320 324 327 322 313 303 305 307 311 311 308 308 309 309 308 309 308 309 312 312 312 314 312 310 309 313 309 307 308 307 309 309 307 300
316 316 317 317 317 316 316 315 314 313 311 316 321 314 324 324 310 311 307 309 307 311 312 309 310 309 309 310 309 309 309 312 315 313 309 312 309 307 309 314 314 312 310 310 304 304 307
315 316 316 316 316 317 316 315 314 312 312 318 318 320 327 322 307 309 312 311 312 310 309 308 307 309 312 310 308 310 312 316 316 313 311 313 306 302 307 311 313 310 312 311 311 310 307
315 315 315 315 316 316 317 315 313 312 312 318 318 314 320 320 316 312 310 310 310 313 311 311 309 310 308 308 312 308 310 314 316 316 324 318 309 306 304 305 311 308 309 310 310 305 306
314 314 314 316 316 316 317 315 314 313 313 317 319 315 316 310 312 314 314 311 309 308 312 312 308 307 307 305 307 307 310 312 315 318 316 313 306 309 311 312 313 310 309 309 308 309 305
314 314 315 316 316 317 317 316 315 314 313 318 314 313 315 314 315 314 310 311 309 310 312 308 307 308 309 306 307 307 310 312 312 315 314 315 309 310 308 311 311 308 309 309 308 308 308
314 314 315 316 317 317 318 317 317 316 314 316 320 320 315 309 311 309 311 310 309 313 314 314 312 312 307 310 313 314 316 316 314 312 313 312 310 310 304 310 307 305 308 308 309 310 310
314 315 316 317 318 318 318 318 318 318 315 317 318 317 311 306 308 308 311 312 311 312 310 313 314 313 317 320 319 318 316 314 313 313 314 314 314 312 305 308 299 310 315 313 311 311 312
314 315 317 318 318 319 319 320 319 319 318 317 319 315 311 306 310 308 310 311 313 314 313 312 315 317 321 316 310 308 307 309 310 312 312 315 315 308 304 303 308 310 313 311 310 309 314
314 316 316 318 319 319 319 319 319 319 318 319 319 317 307 304 306 312 309 310 310 309 311 313 318 318 317 311 307 302 301 305 305 307 313 312 314 309 308 302 299 310 314 317 316 305 317
315 315 317 317 317 318 318 319 319 320 318 318 318 319 310 302 310 312 309 309 311 310 309 311 314 312 315 308 304 302 301 308 302 304 306 305 308 306 305 304 307 315 317 318 305 309 319
315 316 316 316 316 317 317 318 318 319 319 317 321 321 311 304 307 312 314 310 310 312 308 311 311 312 309 305 304 304 303 306 305 310 310 308 305 305 307 305 302 318 316 310 321 322 320
314 315 315 315 315 315 316 316 317 318 319 316 312 316 316 306 308 314 315 317 317 316 313 314 311 312 312 306 307 308 306 308 308 303 314 305 308 309 310 309 325 320 320 322 321 322 320

GFSGBSN_sfc_thetae_171.txt.gz
Theta_e
326 326 326 326 325 325 325 324 325 324 324 323 323 323 323 323 322 322 322 322 321 321 322 322 322 325 322 315 312 326 347 343 325 318 316 316 315 313 318 326 327 325 327 330 331 331 330
326 326 326 326 325 325 325 324 324 324 323 322 322 321 321 322 323 322 322 321 320 320 321 322 322 324 318 312 322 322 323 320 318 316 315 316 316 317 325 325 322 329 328 328 329 328 328
326 326 326 325 325 325 324 323 322 322 321 321 321 321 320 321 322 322 321 320 319 320 322 322 323 324 320 319 323 318 316 315 318 318 315 319 319 313 324 323 330 328 322 323 326 326 325
326 326 326 325 325 324 323 321 321 321 321 321 321 320 320 321 322 321 320 318 318 322 326 323 324 322 316 328 328 322 318 315 318 317 317 319 319 313 321 327 326 321 323 316 322 327 327
326 326 325 325 325 324 323 322 321 320 320 320 320 320 320 321 320 319 318 318 320 327 323 325 318 317 314 328 317 319 320 317 317 318 318 323 317 309 322 317 314 317 309 314 318 326 324
327 326 323 323 322 323 323 322 322 321 320 320 320 320 320 320 319 317 317 317 325 324 322 324 323 314 321 320 321 320 320 318 313 314 314 313 309 305 310 313 303 307 308 312 314 321 322
327 327 325 322 321 320 320 322 322 321 320 320 320 320 319 319 318 316 315 315 318 315 321 315 316 316 320 320 320 317 318 314 311 307 303 309 301 299 313 315 314 313 311 313 315 326 320
326 325 323 321 320 319 319 320 321 320 320 320 319 319 318 318 317 316 312 309 316 315 307 321 322 321 322 315 309 314 317 309 305 301 306 303 299 307 317 318 316 313 309 312 318 324 319
324 323 322 321 320 320 320 320 320 319 319 319 319 318 318 316 316 315 312 312 319 319 307 312 316 319 319 314 310 310 313 310 304 301 303 301 305 311 312 315 313 311 308 313 314 321 318
322 322 321 320 320 320 320 319 319 319 318 318 318 318 316 314 316 320 318 321 319 318 300 307 310 315 317 313 308 318 315 310 307 303 305 303 309 309 305 304 305 296 314 317 313 310 304
321 321 320 320 320 319 319 318 318 318 317 317 317 316 314 313 315 317 320 324 318 313 292 313 312 320 315 309 310 310 316 311 304 304 302 302 305 303 303 305 306 303 315 312 313 310 306
320 320 320 319 319 318 317 317 317 317 316 316 316 315 314 318 318 321 325 324 313 299 294 309 313 310 309 309 310 312 310 311 311 306 304 303 309 306 305 308 307 311 309 309 307 304 296
320 320 319 318 318 317 317 316 316 315 315 315 314 312 313 318 315 322 323 314 296 294 310 308 307 310 308 306 308 308 305 301 299 295 296 302 303 307 308 300 305 304 296 297 297 296 296
319 319 318 318 317 316 316 316 315 315 314 313 311 310 316 319 322 322 317 304 293 303 302 309 310 310 305 307 306 306 303 299 304 302 298 294 293 304 307 302 301 301 297 298 294 294 297
318 319 318 317 317 316 316 315 315 314 313 312 311 320 319 324 324 324 310 297 296 301 307 306 305 305 304 308 307 304 302 301 303 303 296 296 300 308 308 308 305 304 299 306 300 300 299
317 318 317 317 317 316 316 315 314 314 313 312 311 316 320 326 327 316 305 298 302 306 306 306 299 303 301 305 304 302 302 306 305 308 305 302 299 304 308 309 309 305 305 297 298 293 293
316 317 317 317 316 316 316 316 315 313 312 312 314 316 324 326 321 310 300 302 306 310 310 305 302 301 303 304 306 304 304 308 309 309 307 303 300 304 305 302 301 300 297 299 298 300 294
316 316 316 316 315 316 316 316 314 312 311 315 316 310 322 323 308 308 303 306 305 309 312 309 308 304 304 304 304 305 306 308 313 310 303 305 299 299 303 309 308 304 300 299 295 295 299
315 316 316 315 315 316 316 316 314 312 311 312 310 315 326 319 304 306 309 309 310 309 309 308 306 306 306 303 300 307 309 314 315 308 304 304 296 291 296 305 304 301 303 302 300 300 300
315 315 314 315 315 316 316 316 314 312 312 313 312 310 316 316 315 309 307 307 307 313 310 310 308 307 305 302 304 304 307 312 314 313 324 313 299 297 292 303 307 304 308 306 300 296 298
314 315 314 314 316 316 317 316 315 313 313 313 315 312 314 307 309 311 311 310 309 308 312 311 307 305 303 299 302 302 307 308 312 318 311 305 298 303 305 309 310 308 308 308 300 301 299
315 314 315 316 317 317 317 317 316 315 313 314 311 310 312 309 311 308 307 308 309 309 310 308 308 307 306 300 303 303 305 307 308 310 307 308 299 305 302 309 308 307 309 309 304 303 301
314 314 316 317 317 318 318 317 317 316 314 313 314 316 311 307 308 306 306 306 308 312 312 313 312 310 307 308 311 311 310 310 307 305 305 305 302 301 295 307 307 300 307 307 307 305 303
314 314 316 317 319 319 318 318 318 317 316 315 314 313 307 302 306 306 308 309 308 311 309 312 313 310 314 316 314 312 310 308 310 306 307 304 304 303 299 302 293 306 313 312 309 308 308
314 315 316 317 318 318 319 319 318 318 317 316 317 312 308 302 305 305 307 308 310 311 311 311 314 315 316 312 305 303 303 303 307 309 307 308 305 301 297 297 301 308 311 311 305 304 309
314 315 316 317 318 318 318 318 318 318 317 317 318 318 311 301 301 306 305 308 305 306 308 311 315 318 315 307 303 298 296 302 300 307 309 308 309 303 300 296 294 306 312 315 312 300 312
314 316 317 316 316 317 318 318 319 319 317 316 318 318 310 302 306 307 304 304 309 307 306 308 311 311 313 304 300 298 298 306 298 299 302 303 301 299 301 298 303 313 314 314 300 303 314
314 315 316 315 315 316 316 316 317 318 318 316 318 318 312 306 306 308 308 306 307 308 305 309 308 310 308 303 301 301 300 302 302 303 303 303 299 299 300 298 296 316 313 305 310 311 315
314 315 315 315 315 315 315 315 316 317 317 317 311 318 317 307 305 311 311 312 311 311 308 309 309 309 311 306 307 306 302 304 301 297 307 300 304 301 304 303 312 317 313 319 319 314 312